Date String (YYYY-MM-DD hh:mm:ss) UTC,Instrument flags,Ambient pressure (hPa),Sample flow (lpm),Bypass flow (lpm),Sample temperature (°C),Ambient temperature (°C),ASC tube jacket temperature (°C),LED temperature (°C),Box temperature (°C),Sample RH (%),Span deviation,Mass concentration (μg/m³),Mass concentration (μg/m³),Mass concentration (μg/m³)
DateTimeUTC,F1_M11,P_M11,Q1_M11,Q2_M11,T1_M11,T2_M11,T3_M11,T4_M11,T5_M11,U1_M11,ZSPAN_M11,X0_M11,X2_M11,X1_M11
2023-05-20 03:00:00,,0838.8,5.00,0.00,27.9,26.4,00.0,36.2,29.6,28.0,0002.7,0145.33,0105.31,0098.94
2023-05-20 03:01:00,,0838.8,4.99,0.00,27.9,26.4,00.0,36.2,29.6,28.0,0002.8,0144.67,0105.24,0098.88
2023-05-20 03:02:00,,0838.8,5.00,0.00,27.9,26.4,00.0,36.2,29.6,28.0,0002.7,0143.70,0105.06,0098.75
2023-05-20 03:03:00,,0838.8,5.01,0.00,27.9,26.4,00.0,36.2,29.6,28.0,0002.7,0143.61,0104.94,0098.71
2023-05-20 03:04:00,,0838.8,5.00,0.00,27.9,26.4,00.0,36.2,29.6,27.9,0002.7,0144.53,0104.80,0098.56
2023-05-20 03:05:00,,0838.9,5.01,0.00,27.9,26.4,00.0,36.2,29.6,27.9,0002.7,0144.24,0104.74,0098.47
2023-05-20 03:06:00,,0838.9,5.00,0.00,27.9,26.4,00.0,36.2,29.6,27.9,0002.8,0143.93,0104.64,0098.41
2023-05-20 03:07:00,,0838.9,5.00,0.00,27.9,26.4,00.0,36.2,29.6,27.9,0002.8,0143.74,0104.44,0098.30
2023-05-20 03:08:00,,0838.9,5.00,0.00,27.9,26.4,00.0,36.2,29.6,27.9,0002.8,0144.01,0104.43,0098.32
2023-05-20 03:09:00,,0838.9,5.00,0.00,27.9,26.4,00.0,36.2,29.6,28.0,0002.8,0144.38,0104.36,0098.23
2023-05-20 03:10:00,,0838.9,5.00,0.00,28.0,26.4,00.0,36.2,29.6,27.9,0002.8,0144.38,0104.27,0098.18
2023-05-20 03:11:00,,0838.9,4.99,0.00,28.0,26.5,00.0,36.2,29.6,27.9,0002.7,0144.23,0104.15,0098.07
2023-05-20 03:12:00,,0838.9,5.00,0.00,28.0,26.5,00.0,36.3,29.6,27.9,0002.7,0144.40,0104.17,0098.04
2023-05-20 03:13:00,,0838.9,4.99,0.00,28.0,26.5,00.0,36.3,29.6,28.0,0002.6,0145.55,0104.35,0098.15
2023-05-20 03:14:00,,0838.9,5.00,0.00,28.0,26.5,00.0,36.3,29.7,28.0,0002.6,0145.55,0104.33,0098.12
2023-05-20 03:15:00,,0838.9,5.00,0.00,28.0,26.5,00.0,36.3,29.7,28.1,0002.6,0144.44,0104.34,0098.18
2023-05-20 03:16:00,,0838.9,5.01,0.00,28.0,26.5,00.0,36.3,29.7,28.1,0002.5,0144.87,0104.28,0098.15
2023-05-20 03:17:00,,0838.9,4.98,0.00,28.0,26.5,00.0,36.3,29.7,28.1,0002.5,0144.61,0104.27,0098.15
2023-05-20 03:18:00,,0838.9,5.01,0.00,28.0,26.5,00.0,36.3,29.7,28.1,0002.5,0144.53,0104.28,0098.09
2023-05-20 03:19:00,,0838.9,5.01,0.00,28.0,26.5,00.0,36.3,29.7,28.1,0002.5,0144.19,0104.26,0098.06
2023-05-20 03:20:00,,0838.9,4.99,0.00,28.0,26.5,00.0,36.3,29.7,28.1,0002.5,0143.60,0104.22,0098.02
2023-05-20 03:21:00,,0838.9,5.00,0.00,28.0,26.5,00.0,36.3,29.7,28.1,0002.5,0143.78,0104.24,0097.96
2023-05-20 03:22:00,,0838.9,5.00,0.00,28.0,26.5,00.0,36.3,29.7,28.1,0002.5,0144.35,0104.25,0097.94
2023-05-20 03:23:00,,0838.8,4.99,0.00,28.0,26.5,00.0,36.3,29.7,28.1,0002.4,0144.53,0104.23,0097.90
2023-05-20 03:24:00,,0838.9,5.00,0.00,28.0,26.5,00.0,36.3,29.7,28.1,0002.5,0143.86,0104.10,0097.76
2023-05-20 03:25:00,,0838.9,5.01,0.00,28.0,26.5,00.0,36.3,29.7,28.1,0002.5,0143.41,0104.05,0097.73
2023-05-20 03:26:00,,0838.9,5.00,0.00,28.0,26.5,00.0,36.3,29.7,28.2,0002.6,0143.50,0104.03,0097.75
2023-05-20 03:27:00,,0838.9,5.00,0.00,28.1,26.5,00.0,36.3,29.7,28.2,0002.6,0143.55,0104.03,0097.77
2023-05-20 03:28:00,,0838.9,5.00,0.00,28.1,26.5,00.0,36.3,29.7,28.1,0002.6,0144.25,0104.13,0097.84
2023-05-20 03:29:00,,0839.0,5.00,0.00,28.1,26.5,00.0,36.3,29.7,28.1,0002.6,0144.40,0104.20,0097.85
2023-05-20 03:30:00,,0839.0,5.00,0.00,28.1,26.5,00.0,36.3,29.7,28.1,0002.5,0144.49,0104.21,0097.89
2023-05-20 03:31:00,,0839.1,5.00,0.00,28.1,26.6,00.0,36.4,29.7,28.1,0002.4,0144.86,0104.26,0097.92
2023-05-20 03:32:00,,0839.1,4.99,0.00,28.1,26.6,00.0,36.4,29.7,28.1,0002.4,0144.85,0104.19,0097.91
2023-05-20 03:33:00,,0839.1,4.99,0.00,28.1,26.6,00.0,36.4,29.7,28.1,0002.4,0143.91,0104.03,0097.83
2023-05-20 03:34:00,,0839.1,5.00,0.00,28.1,26.5,00.0,36.4,29.7,28.1,0002.4,0144.13,0104.01,0097.80
2023-05-20 03:35:00,,0839.1,5.01,0.00,28.1,26.5,00.0,36.4,29.7,28.1,0002.4,0145.28,0103.93,0097.69
2023-05-20 03:36:00,,0839.1,5.00,0.00,28.1,26.5,00.0,36.4,29.7,28.1,0002.4,0145.40,0103.91,0097.65
2023-05-20 03:37:00,,0839.1,5.00,0.00,28.1,26.5,00.0,36.4,29.7,28.2,0002.4,0145.44,0104.00,0097.66
2023-05-20 03:38:00,,0839.2,5.00,0.00,28.1,26.5,00.0,36.4,29.7,28.1,0002.3,0144.82,0103.87,0097.57
2023-05-20 03:39:00,,0839.2,5.00,0.00,28.1,26.5,00.0,36.4,29.7,28.2,0002.3,0143.23,0103.37,0097.19
2023-05-20 03:40:00,,0839.2,5.00,0.00,28.1,26.5,00.0,36.4,29.7,28.2,0002.2,0142.75,0103.02,0096.86
2023-05-20 03:41:00,,0839.1,5.00,0.00,28.1,26.5,00.0,36.4,29.7,28.2,0002.2,0142.39,0102.68,0096.50
2023-05-20 03:42:00,,0839.2,4.99,0.00,28.1,26.5,00.0,36.4,29.7,28.1,0002.3,0141.95,0102.41,0096.22
2023-05-20 03:43:00,,0839.1,5.00,0.00,28.1,26.5,00.0,36.4,29.7,28.3,0002.4,0142.11,0102.03,0095.83
2023-05-20 03:44:00,,0839.1,5.01,0.00,28.1,26.5,00.0,36.4,29.7,28.3,0002.3,0141.64,0101.57,0095.36
2023-05-20 03:45:00,,0839.2,5.00,0.00,28.1,26.5,00.0,36.4,29.7,28.2,0002.3,0140.24,0101.04,0094.94
2023-05-20 03:46:00,,0839.1,5.00,0.00,28.1,26.5,00.0,36.4,29.7,28.2,0002.2,0138.05,0100.45,0094.50
2023-05-20 03:47:00,,0839.1,5.00,0.00,28.1,26.6,00.0,36.4,29.7,28.2,0002.2,0136.77,0099.78,0093.89
2023-05-20 03:48:00,,0839.1,5.01,0.00,28.1,26.6,00.0,36.4,29.7,28.2,0002.3,0135.31,0098.96,0093.22
2023-05-20 03:49:00,,0839.1,5.00,0.00,28.1,26.6,00.0,36.4,29.7,28.2,0002.3,0134.67,0098.37,0092.61
2023-05-20 03:50:00,,0839.1,5.00,0.00,28.1,26.5,00.0,36.4,29.8,28.2,0002.3,0134.42,0098.15,0092.37
2023-05-20 03:51:00,,0839.1,5.00,0.00,28.1,26.5,00.0,36.4,29.8,28.2,0002.3,0134.04,0097.91,0092.11
2023-05-20 03:52:00,,0839.1,5.00,0.00,28.1,26.5,00.0,36.4,29.7,28.2,0002.2,0133.79,0097.68,0091.91
2023-05-20 03:53:00,,0839.2,5.00,0.00,28.1,26.5,00.0,36.4,29.8,28.1,0002.1,0133.57,0097.44,0091.74
2023-05-20 03:54:00,,0839.1,5.01,0.00,28.1,26.5,00.0,36.4,29.8,28.1,0002.1,0132.48,0097.27,0091.67
2023-05-20 03:55:00,,0839.1,4.99,0.00,28.1,26.5,00.0,36.4,29.8,28.1,0002.1,0132.77,0097.59,0091.90
2023-05-20 03:56:00,,0839.2,5.00,0.00,28.1,26.6,00.0,36.4,29.8,28.1,0002.1,0133.45,0097.77,0092.05
2023-05-20 03:57:00,,0839.2,5.00,0.00,28.1,26.6,00.0,36.4,29.8,28.1,0002.1,0134.07,0098.14,0092.29
2023-05-20 03:58:00,,0839.2,5.00,0.00,28.1,26.6,00.0,36.4,29.8,28.0,0002.1,0135.21,0098.69,0092.76
2023-05-20 03:59:00,,0839.2,5.00,0.00,28.1,26.6,00.0,36.4,29.8,28.0,0002.1,0136.99,0099.37,0093.35
